• In Russia
  • List of Countries
  • For 7 days
  • Water Temperature
  • Satellite Maps
  • Weather Map
  • Weather Widgets
  • user-avatar
    Login

    Hourly Weather Pilisvorosvar

    Today, 20 October, Friday

    Time Temperature Precipitation Wind Pressure Humidity
    00:00 +12°C° 0 mm 1 mps 745 mmHg 79%
    01:00 +11°C° 0 mm 0 mps 745 mmHg 81%
    02:00 +10°C° 0 mm 0 mps 745 mmHg 82%
    03:00 +10°C° 0 mm 0 mps 744 mmHg 83%
    04:00 +10°C° 0 mm 0 mps 744 mmHg 84%
    05:00 +10°C° 0 mm 0 mps 745 mmHg 83%
    06:00 +10°C° 0 mm 0 mps 745 mmHg 82%
    07:00 +10°C° 0 mm 0 mps 745 mmHg 82%
    08:00 +12°C° 0 mm 0 mps 745 mmHg 73%
    09:00 +15°C° 0 mm 1 mps 746 mmHg 65%
    10:00 +18°C° 0 mm 1 mps 746 mmHg 56%
    11:00 +20°C° 0 mm 1 mps 746 mmHg 51%
    12:00 +21°C° 0 mm 1 mps 746 mmHg 46%
    13:00 +22°C° 0 mm 1 mps 746 mmHg 42%
    14:00 +21°C° 0 mm 1 mps 745 mmHg 43%
    15:00 +21°C° 0 mm 1 mps 745 mmHg 44%
    16:00 +20°C° 0 mm 1 mps 745 mmHg 45%
    17:00 +19°C° 0 mm 1 mps 745 mmHg 48%
    18:00 +18°C° 0 mm 1 mps 746 mmHg 50%
    19:00 +16°C° 0 mm 1 mps 746 mmHg 53%
    20:00 +15°C° 0 mm 1 mps 746 mmHg 55%
    21:00 +15°C° 0 mm 1 mps 746 mmHg 57%
    22:00 +14°C° 0 mm 1 mps 746 mmHg 59%
    23:00 +14°C° 0 mm 1 mps 746 mmHg 61%

    Tomorrow, 21 October, Saturday

    Time Temperature Precipitation Wind Pressure Humidity
    00:00 +14°C° 0 mm 1 mps 746 mmHg 63%
    01:00 +13°C° 0 mm 1 mps 746 mmHg 65%
    02:00 +13°C° 0 mm 1 mps 746 mmHg 67%
    03:00 +13°C° 0 mm 1 mps 746 mmHg 69%
    04:00 +12°C° 0 mm 1 mps 746 mmHg 71%
    05:00 +12°C° 0 mm 1 mps 746 mmHg 71%
    06:00 +12°C° 0 mm 1 mps 746 mmHg 72%
    07:00 +12°C° 0 mm 1 mps 746 mmHg 72%
    08:00 +14°C° 0 mm 1 mps 746 mmHg 66%
    09:00 +15°C° 0 mm 1 mps 746 mmHg 61%
    10:00 +18°C° 0 mm 1 mps 746 mmHg 55%
    11:00 +18°C° 0 mm 1 mps 746 mmHg 53%
    12:00 +19°C° 0 mm 1 mps 746 mmHg 51%
    13:00 +20°C° 0 mm 1 mps 746 mmHg 49%
    14:00 +19°C° 0 mm 1 mps 745 mmHg 51%
    15:00 +19°C° 0 mm 1 mps 745 mmHg 53%
    16:00 +19°C° 0 mm 1 mps 745 mmHg 55%
    17:00 +18°C° 0 mm 1 mps 745 mmHg 58%
    18:00 +15°C° 0 mm 0 mps 745 mmHg 61%
    19:00 +14°C° 0 mm 0 mps 745 mmHg 64%
    20:00 +13°C° 0 mm 0 mps 745 mmHg 65%
    21:00 +13°C° 0 mm 0 mps 745 mmHg 67%
    22:00 +13°C° 0 mm 0 mps 745 mmHg 68%
    23:00 +13°C° 0 mm 0 mps 745 mmHg 69%

    Day after tomorrow, 22 October, Sunday

    Time Temperature Precipitation Wind Pressure Humidity
    00:00 +12°C° 0 mm 0 mps 745 mmHg 70%
    01:00 +12°C° 0 mm 0 mps 745 mmHg 71%
    02:00 +12°C° 0 mm 0 mps 744 mmHg 72%
    03:00 +13°C° 0 mm 1 mps 744 mmHg 73%
    04:00 +13°C° 0 mm 1 mps 744 mmHg 74%
    05:00 +13°C° 0 mm 1 mps 744 mmHg 74%
    06:00 +13°C° 0 mm 1 mps 744 mmHg 75%
    07:00 +12°C° 0 mm 0 mps 744 mmHg 75%
    08:00 +14°C° 0 mm 1 mps 744 mmHg 70%
    09:00 +15°C° 0 mm 1 mps 744 mmHg 64%
    10:00 +18°C° 0 mm 1 mps 744 mmHg 59%
    11:00 +18°C° 0 mm 1 mps 744 mmHg 57%
    12:00 +19°C° 0 mm 1 mps 743 mmHg 54%
    13:00 +20°C° 0 mm 1 mps 743 mmHg 51%
    14:00 +19°C° 0 mm 1 mps 743 mmHg 53%
    15:00 +19°C° 0 mm 1 mps 742 mmHg 55%
    16:00 +18°C° 0 mm 1 mps 742 mmHg 57%
    17:00 +18°C° 0.2 mm 1 mps 741 mmHg 61%
    18:00 +16°C° 0.2 mm 2 mps 741 mmHg 65%
    19:00 +15°C° 0.2 mm 2 mps 741 mmHg 68%
    20:00 +14°C° 1 mm 2 mps 741 mmHg 72%
    21:00 +14°C° 1 mm 2 mps 741 mmHg 77%
    22:00 +14°C° 1 mm 2 mps 741 mmHg 81%
    23:00 +13°C° 0.9 mm 3 mps 740 mmHg 82%

    23 October, Monday

    Time Temperature Precipitation Wind Pressure Humidity
    00:00 +12°C° 0.9 mm 3 mps 740 mmHg 84%
    01:00 +12°C° 0.9 mm 3 mps 740 mmHg 85%
    02:00 +12°C° 2.5 mm 3 mps 740 mmHg 86%
    03:00 +12°C° 2.5 mm 3 mps 739 mmHg 88%
    04:00 +11°C° 2.5 mm 4 mps 739 mmHg 89%
    05:00 +11°C° 2.9 mm 4 mps 739 mmHg 89%
    06:00 +11°C° 2.9 mm 4 mps 739 mmHg 89%
    07:00 +11°C° 2.9 mm 4 mps 738 mmHg 90%
    08:00 +10°C° 2.5 mm 5 mps 739 mmHg 89%
    09:00 +9°C° 2.5 mm 5 mps 739 mmHg 89%
    10:00 +9°C° 2.5 mm 5 mps 739 mmHg 88%
    11:00 +9°C° 1.7 mm 5 mps 739 mmHg 88%
    12:00 +9°C° 1.7 mm 5 mps 739 mmHg 88%
    13:00 +9°C° 1.7 mm 5 mps 739 mmHg 88%
    14:00 +9°C° 1.5 mm 5 mps 739 mmHg 88%
    15:00 +9°C° 1.5 mm 5 mps 739 mmHg 88%
    16:00 +9°C° 1.5 mm 5 mps 740 mmHg 87%
    17:00 +9°C° 1.3 mm 5 mps 740 mmHg 87%
    18:00 +9°C° 1.3 mm 6 mps 740 mmHg 87%
    19:00 +9°C° 1.3 mm 6 mps 741 mmHg 86%
    20:00 +9°C° 1.1 mm 6 mps 741 mmHg 87%
    21:00 +9°C° 1.1 mm 5 mps 741 mmHg 87%
    22:00 +8°C° 1.1 mm 5 mps 742 mmHg 87%
    23:00 +8°C° 0.9 mm 5 mps 742 mmHg 87%

    24 October, Tuesday

    Time Temperature Precipitation Wind Pressure Humidity
    00:00 +8°C° 0.9 mm 5 mps 742 mmHg 87%
    01:00 +8°C° 0.9 mm 5 mps 743 mmHg 87%
    02:00 +8°C° 0.4 mm 5 mps 743 mmHg 86%
    03:00 +8°C° 0.4 mm 5 mps 743 mmHg 86%
    04:00 +8°C° 0.4 mm 5 mps 744 mmHg 86%
    05:00 +8°C° 0.2 mm 5 mps 744 mmHg 85%
    06:00 +9°C° 0.2 mm 5 mps 745 mmHg 85%
    07:00 +9°C° 0.2 mm 5 mps 745 mmHg 84%
    08:00 +9°C° 0.3 mm 5 mps 745 mmHg 83%
    09:00 +9°C° 0.3 mm 5 mps 746 mmHg 82%
    10:00 +10°C° 0.3 mm 5 mps 746 mmHg 81%
    11:00 +10°C° 0.3 mm 5 mps 746 mmHg 80%
    12:00 +10°C° 0.3 mm 5 mps 746 mmHg 79%
    13:00 +10°C° 0.3 mm 5 mps 746 mmHg 78%
    14:00 +10°C° 0.4 mm 5 mps 746 mmHg 79%
    15:00 +10°C° 0.4 mm 5 mps 747 mmHg 80%
    16:00 +11°C° 0.4 mm 4 mps 747 mmHg 80%
    17:00 +11°C° 0.3 mm 4 mps 747 mmHg 81%
    18:00 +10°C° 0.3 mm 4 mps 747 mmHg 82%
    19:00 +10°C° 0.3 mm 4 mps 747 mmHg 82%
    20:00 +8°C° 0.2 mm 4 mps 748 mmHg 83%
    21:00 +9°C° 0.2 mm 3 mps 748 mmHg 84%
    22:00 +9°C° 0.2 mm 3 mps 748 mmHg 84%
    23:00 +8°C° 0 mm 3 mps 748 mmHg 85%

    25 October, Wednesday

    Time Temperature Precipitation Wind Pressure Humidity
    00:00 +8°C° 0 mm 3 mps 749 mmHg 85%
    01:00 +8°C° 0 mm 3 mps 749 mmHg 86%
    02:00 +8°C° 0 mm 3 mps 749 mmHg 86%
    03:00 +8°C° 0 mm 3 mps 749 mmHg 86%
    04:00 +8°C° 0 mm 3 mps 749 mmHg 87%
    05:00 +8°C° 0 mm 3 mps 749 mmHg 87%
    06:00 +8°C° 0 mm 3 mps 750 mmHg 86%
    07:00 +8°C° 0 mm 3 mps 750 mmHg 86%
    08:00 +9°C° 0 mm 3 mps 751 mmHg 81%
    09:00 +11°C° 0 mm 3 mps 751 mmHg 75%
    10:00 +12°C° 0 mm 3 mps 752 mmHg 70%
    11:00 +13°C° 0 mm 3 mps 752 mmHg 66%
    12:00 +14°C° 0 mm 3 mps 752 mmHg 62%
    13:00 +16°C° 0 mm 2 mps 752 mmHg 57%
    14:00 +15°C° 0 mm 2 mps 752 mmHg 60%
    15:00 +15°C° 0 mm 2 mps 752 mmHg 62%
    16:00 +14°C° 0 mm 1 mps 752 mmHg 65%
    17:00 +13°C° 0 mm 1 mps 753 mmHg 69%
    18:00 +13°C° 0 mm 1 mps 753 mmHg 73%
    19:00 +12°C° 0 mm 1 mps 753 mmHg 76%
    20:00 +11°C° 0 mm 1 mps 754 mmHg 78%
    21:00 +11°C° 0 mm 1 mps 754 mmHg 79%
    22:00 +10°C° 0 mm 1 mps 754 mmHg 80%
    23:00 +10°C° 0 mm 1 mps 755 mmHg 80%
    Show more